STARLINK-35985

Last updated on Mon Dec 15 2025 00:02:12 GMT+0000 (Coordinated Universal Time)

1 66815U 25278AA 25348.25003472 -.01429596 00000+0 -74652-2 0 9998 2 66815 42.9969 242.6772 0001772 278.5335 158.4627 15.82516030 3295
UTC large
Height (km)
Speed (km/s)
/
Latitude / Longitude
Inclination (degrees)
Orbital Period (minutes)
Azimuth
Elevation
Range (km)
Doppler Factor

Next 0 passes for location: London (51.5072 / 0.1276)

Sorry there are no passes over London.